[[{"header":{"parameterUnit":"m.s-1","parameterCategory":1,"la1":30.2991,"la2":30.254,"lo1":-89.0895,"lo2":-89.0444,"dy":0.0017,"dx":0.0017,"nx":28,"ny":28,"refTime":"2025-05-19T03:00:00:Z","depth":0,"parameterNumber":2,"parameterNumberName":"U-component_of_WINDS"},"data":[0,0,0,0,0,0,0,0,0,0,0,0,0,0,0,0,0,0,0,0,0,0,0,0,0,0,0,0,0,0,0,0,0,0,0,0,0,0,0,0,0,0,0,0,0,0,0,0,0,0,0,0,0,0,0,0,0,0,-1.9097,-1.9097,0,-1.9085,-1.9085,-1.9085,-1.904,-1.9039,-1.9038,-1.9037,-1.9026,-1.9027,-1.9027,0,0,0,0,0,0,0,0,0,0,0,0,0,-1.9084,-1.9085,-1.9097,-1.9097,-1.9097,-1.9085,-1.9085,-1.9085,-1.904,-1.9039,-1.9038,-1.9037,-1.9026,-1.9027,-1.9028,0,0,0,0,0,0,0,0,0,0,0,0,0,-1.9083,-1.9085,-1.9097,-1.9073,-1.9071,-1.9085,-1.9085,-1.9084,-1.904,-1.9039,-1.9037,-1.9036,-1.9026,-1.9027,-1.9028,-1.9064,0,0,-1.9031,-1.9031,0,0,0,0,0,0,0,0,-1.9083,-1.9083,-1.9077,-1.9075,-1.9072,-1.9062,-1.9076,-1.9078,-1.9041,-1.9052,-1.9037,-1.9035,-1.904,-1.9039,-1.904,-1.9064,-1.9063,-1.9031,-1.9031,-1.9032,-1.9032,0,0,0,0,0,0,0,-1.9083,-1.9084,-1.9092,-1.9077,-1.9074,-1.9064,-1.9062,-1.9076,-1.9055,-1.9051,-1.9048,-1.9047,-1.9038,-1.904,-1.904,-1.9063,-1.9031,-1.9032,-1.9032,-1.9033,-1.9117,-1.9119,0,0,0,0,0,0,-1.9086,-1.9084,-1.9093,-1.9092,-1.9074,-1.9065,-1.9063,-1.9067,-1.9054,-1.9051,-1.9048,-1.9045,-1.9039,-1.9039,-1.9039,-1.9081,-1.9032,-1.9033,-1.9033,-1.9116,-1.9118,-1.9119,0,0,0,0,0,0,-1.9086,-1.9087,-1.9093,-1.9087,-1.9087,-1.9067,-1.9072,-1.9068,-1.9069,-1.9052,-1.9048,-1.9053,-1.9037,-1.9038,-1.9059,-1.908,-1.9033,-1.9034,-1.9114,-1.9116,-1.9119,-1.9166,0,0,0,0,0,0,-1.9086,-1.9088,-1.9101,-1.9088,-1.9087,-1.9112,-1.9073,-1.9068,-1.9071,-1.9066,-1.9056,-1.9053,-1.9036,-1.9057,-1.906,-1.9081,-1.9035,-1.9112,-1.9115,-1.9118,-1.9162,-1.917,-1.9176,0,0,0,0,0,-1.9086,-1.9115,-1.9101,-1.9103,-1.9103,-1.9113,-1.9113,-1.9093,-1.9073,-1.9086,-1.9075,-1.9053,-1.9078,-1.906,-1.9062,-1.9084,-1.911,-1.9114,-1.9118,-1.9159,-1.9168,-1.9176,0,0,0,0,0,0,-1.9131,-1.9112,-1.9098,-1.9123,-1.912,-1.9105,-1.9121,-1.9103,-1.9106,-1.9101,-1.9077,-1.9075,-1.9099,-1.9094,-1.9074,-1.9119,-1.9091,-1.9095,-1.9122,-1.913,-1.9137,-1.9137,-1.9036,0,0,0,0,0,-1.9144,-1.9153,-1.9137,-1.9161,-1.916,-1.9141,-1.9145,-1.913,-1.9126,-1.9124,-1.9115,-1.9112,-1.912,-1.9125,-1.9131,-1.9162,-1.916,-1.9179,-1.9186,-1.9191,-1.9195,-1.9212,-1.922,-1.9132,-1.9132,-1.9132,0,0,-1.9171,-1.9162,-1.9169,-1.917,-1.9165,-1.9176,-1.914,-1.9153,-1.916,-1.9126,-1.9144,-1.9138,-1.9134,-1.9161,-1.9172,-1.9157,-1.9219,-1.9196,-1.9201,-1.9201,-1.9217,-1.9225,-1.9232,-1.9134,-1.9134,-1.9133,0,0,-1.9224,-1.9219,-1.9238,-1.9235,-1.9229,-1.9216,-1.9221,-1.921,-1.9204,-1.9223,-1.9198,-1.9207,-1.922,-1.9218,-1.9219,-1.9275,-1.9254,-1.9277,-1.9313,-1.933,-1.9337,-1.9343,-1.9362,-1.937,-1.9281,-1.9282,-1.9282,0,-1.9258,-1.9272,-1.925,-1.9265,-1.9266,-1.9236,-1.9256,-1.9254,-1.9251,-1.9253,-1.9236,-1.9253,-1.9248,-1.9274,-1.9287,-1.9289,-1.9294,-1.9277,-1.9337,-1.9343,-1.9348,-1.9367,-1.9374,-1.9284,-1.9284,-1.9284,-1.9283,0,-1.9314,-1.9324,-1.9341,-1.9338,-1.9342,-1.9359,-1.9341,-1.9348,-1.9333,-1.9323,-1.9343,-1.9336,-1.934,-1.9346,-1.9332,-1.937,-1.9361,-1.9342,-1.9312,-1.936,-1.9377,-1.9384,-1.9288,-1.9287,-1.9286,-1.9286,0,0,-1.9394,-1.938,-1.9386,-1.9385,-1.9377,-1.9385,-1.9402,-1.9406,-1.9412,-1.9411,-1.9425,-1.9438,-1.942,-1.9421,-1.9407,-1.9422,-1.9466,-1.94,-1.94,-1.9412,-1.9508,-1.9522,-1.9531,-1.9454,-1.9455,-1.9456,-1.9508,0,-1.9444,-1.947,-1.9452,-1.9482,-1.9492,-1.9464,-1.9479,-1.9477,-1.9468,-1.9476,-1.9467,-1.9476,-1.9452,-1.9453,-1.9467,-1.9458,-1.9485,-1.9454,-1.9466,-1.9467,-1.9466,-1.9539,-1.9554,-1.9603,-1.9515,-1.9516,-1.9517,0,-1.9506,-1.9508,-1.9538,-1.953,-1.9533,-1.9546,-1.9549,-1.9557,-1.9554,-1.9547,-1.9549,-1.9532,-1.9549,-1.9521,-1.9544,-1.9523,-1.9528,-1.9524,-1.9526,-1.9525,-1.9494,-1.954,-1.9619,-1.9626,-1.9527,-1.9526,-1.9526,0,-1.956,-1.9571,-1.9591,-1.959,-1.9581,-1.9591,-1.9588,-1.9583,-1.9587,-1.959,-1.9592,-1.9598,-1.96,-1.9606,-1.959,-1.9571,-1.9616,-1.9587,-1.9611,-1.9611,-1.962,-1.9619,-1.97,-1.9625,-1.9625,-1.9625,-1.9625,0,-1.9618,-1.9638,-1.9615,-1.9627,-1.9649,-1.9629,-1.9651,-1.9645,-1.9642,-1.9653,-1.9631,-1.9642,-1.9622,-1.9631,-1.962,-1.9641,-1.9643,-1.9638,-1.9634,-1.9639,-1.964,-1.964,-1.9636,-1.9627,-1.9626,-1.9626,-1.9625,0,-1.9682,-1.9667,-1.9687,-1.9676,-1.9674,-1.9691,-1.9682,-1.9694,-1.9685,-1.9699,-1.9701,-1.9687,-1.9697,-1.9683,-1.9692,-1.9685,-1.9714,-1.9706,-1.9714,-1.9711,-1.9736,-1.9734,-1.9819,-1.9829,-1.9749,-1.975,-1.975,0,-1.9718,-1.9733,-1.9724,-1.973,-1.9728,-1.9737,-1.9741,-1.9723,-1.9728,-1.9727,-1.9739,-1.9747,-1.9752,-1.977,-1.9761,-1.9768,-1.976,-1.9789,-1.9761,-1.9765,-1.9759,-1.9758,-1.976,-1.9795,-1.9796,-1.9796,-1.9797,0,-1.9786,-1.9778,-1.9784,-1.9788,-1.9793,-1.9796,-1.9797,-1.9803,-1.9784,-1.9791,-1.9801,-1.9805,-1.9815,-1.9823,-1.9829,-1.9826,-1.9809,-1.9807,-1.9812,-1.9817,-1.9821,-1.9818,-1.9729,-1.9804,-1.9803,-1.9803,-1.9803,-1.9802,-1.9836,-1.9848,-1.9844,-1.9852,-1.9851,-1.9852,-1.9862,-1.9855,-1.9863,-1.9868,-1.9858,-1.9871,-1.9869,-1.9874,-1.9874,-1.9884,-1.9872,-1.988,-1.9882,-1.9884,-1.9888,-1.982,-1.9885,-1.9885,-1.9885,-1.9885,-1.9885,0,-1.9902,-1.9898,-1.9906,-1.9907,-1.9914,-1.9897,-1.9898,-1.9905,-1.9916,-1.9916,-1.9922,-1.9934,-1.9943,-1.9935,-1.9943,-1.9953,-1.9945,-1.9955,-1.9954,-1.9953,-1.9899,-1.9893,-1.9961,-1.9961,-1.9961,-1.9961,-1.9961,-1.9961,-1.9936,-1.9955,-1.9948,-1.9967,-1.9963,-1.9975,-1.9976,-1.9978,-1.9978,-1.9992,-1.9999,-1.9994,-1.9992,-1.9999,-2.0007,-2.0005,-2.0008,-2.0021,-2.0016,-1.9965,-1.9957,-1.995,-1.9944,-2.0022,-2.0022,-2.007,-2.007,-2.007]},{"header":{"parameterUnit":"m.s-1","parameterCategory":1,"la1":30.2991,"la2":30.254,"lo1":-89.0895,"lo2":-89.0444,"dy":0.0017,"dx":0.0017,"nx":28,"ny":28,"refTime":"2025-05-19T03:00:00:Z","depth":0,"parameterNumber":3,"parameterNumberName":"V-component_of_WINDS"},"data":[0,0,0,0,0,0,0,0,0,0,0,0,0,0,0,0,0,0,0,0,0,0,0,0,0,0,0,0,0,0,0,0,0,0,0,0,0,0,0,0,0,0,0,0,0,0,0,0,0,0,0,0,0,0,0,0,0,0,4.6253,4.6253,0,4.624,4.624,4.624,4.6268,4.6269,4.627,4.627,4.6252,4.625,4.6249,0,0,0,0,0,0,0,0,0,0,0,0,0,4.6298,4.6297,4.6253,4.6253,4.6253,4.624,4.624,4.624,4.6268,4.6269,4.627,4.6271,4.6252,4.625,4.6249,0,0,0,0,0,0,0,0,0,0,0,0,0,4.6281,4.6297,4.6253,4.6265,4.6266,4.624,4.624,4.624,4.6267,4.6269,4.627,4.6271,4.6253,4.6251,4.6249,4.6209,0,0,4.6242,4.6242,0,0,0,0,0,0,0,0,4.6282,4.6279,4.6264,4.6264,4.6265,4.6257,4.6249,4.6229,4.6267,4.6267,4.627,4.6272,4.6252,4.625,4.6244,4.6208,4.6207,4.6242,4.6241,4.624,4.624,0,0,0,0,0,0,0,4.6283,4.628,4.6248,4.6263,4.6264,4.627,4.6269,4.6246,4.6252,4.6267,4.6269,4.6267,4.6253,4.6246,4.6244,4.6207,4.6242,4.624,4.6239,4.6238,4.6139,4.6138,0,0,0,0,0,0,4.6283,4.6281,4.6248,4.6248,4.6277,4.6268,4.6267,4.6258,4.6252,4.6253,4.6266,4.6269,4.6249,4.6247,4.6244,4.6198,4.624,4.6238,4.6237,4.6141,4.6139,4.6138,0,0,0,0,0,0,4.6284,4.628,4.6249,4.6265,4.6261,4.6266,4.6256,4.6257,4.6251,4.6252,4.6252,4.6259,4.625,4.6247,4.6218,4.6198,4.6237,4.6236,4.6142,4.614,4.6138,4.6106,0,0,0,0,0,0,4.6285,4.628,4.6266,4.6264,4.626,4.6224,4.6255,4.6256,4.6248,4.6251,4.6245,4.6245,4.6251,4.6221,4.6216,4.6196,4.6234,4.6144,4.6141,4.6139,4.6109,4.6103,4.6098,0,0,0,0,0,4.6287,4.6255,4.6265,4.6261,4.6243,4.6223,4.6221,4.623,4.6247,4.6232,4.6232,4.6245,4.6201,4.6218,4.6213,4.6191,4.6146,4.6142,4.6139,4.6111,4.6104,4.6098,0,0,0,0,0,0,4.6252,4.6255,4.6266,4.6233,4.6228,4.6228,4.6209,4.6222,4.621,4.6213,4.6223,4.6221,4.6191,4.6188,4.6207,4.6154,4.6176,4.6172,4.6157,4.615,4.6145,4.6146,4.6232,0,0,0,0,0,4.6241,4.6226,4.6229,4.62,4.6198,4.6204,4.6196,4.6204,4.6198,4.6195,4.6193,4.6186,4.6171,4.616,4.6146,4.6109,4.6108,4.6092,4.6086,4.6082,4.6078,4.606,4.6053,4.6127,4.6127,4.6127,0,0,4.6216,4.6217,4.6206,4.6193,4.619,4.6174,4.6202,4.6183,4.6171,4.6191,4.6166,4.6164,4.6157,4.6125,4.611,4.6121,4.6058,4.6078,4.6074,4.6073,4.6056,4.6049,4.6043,4.6125,4.6125,4.6126,0,0,4.6165,4.6163,4.614,4.6137,4.6133,4.6138,4.6133,4.6132,4.6132,4.6107,4.6123,4.6108,4.6081,4.6076,4.607,4.602,4.6031,4.6014,4.5986,4.5968,4.5962,4.5957,4.594,4.5934,4.601,4.601,4.601,0,4.6135,4.6113,4.6126,4.6107,4.6101,4.6122,4.6099,4.6095,4.6085,4.608,4.6093,4.6062,4.6058,4.6026,4.6014,4.6008,4.6002,4.6015,4.5962,4.5957,4.5953,4.5936,4.593,4.6008,4.6009,4.6009,4.6009,0,4.6077,4.6061,4.6043,4.6036,4.6028,4.6007,4.6016,4.6006,4.6016,4.6019,4.5994,4.5991,4.5977,4.597,4.5978,4.594,4.5947,4.5961,4.5983,4.5943,4.5928,4.5922,4.6006,4.6006,4.6007,4.6007,0,0,4.6,4.6004,4.5997,4.5995,4.5994,4.5981,4.5962,4.5951,4.5943,4.5936,4.5919,4.5898,4.5912,4.5905,4.5912,4.5897,4.5859,4.5913,4.5913,4.5904,4.5818,4.5808,4.58,4.5867,4.5866,4.5865,4.5819,0,4.595,4.5918,4.593,4.5897,4.5883,4.5904,4.5887,4.5884,4.5887,4.5875,4.5878,4.5864,4.5883,4.5879,4.5865,4.5867,4.5842,4.587,4.5851,4.5851,4.5853,4.5792,4.578,4.5737,4.5813,4.5812,4.5811,0,4.5886,4.5881,4.5846,4.585,4.5844,4.5829,4.5821,4.581,4.5807,4.5811,4.5805,4.5816,4.5796,4.582,4.5793,4.5812,4.5806,4.5806,4.5804,4.5802,4.5828,4.5789,4.5723,4.5717,4.5802,4.5803,4.5804,0,4.5835,4.5818,4.5797,4.5794,4.5797,4.5786,4.5787,4.5785,4.5779,4.5772,4.5768,4.5758,4.5752,4.5744,4.5753,4.5769,4.5725,4.5749,4.5727,4.5727,4.5716,4.5716,4.5648,4.5712,4.5712,4.5712,4.5712,0,4.5778,4.5756,4.5774,4.576,4.5737,4.5752,4.5728,4.573,4.573,4.5717,4.5734,4.5721,4.5733,4.5721,4.5728,4.5705,4.5702,4.5704,4.5706,4.5703,4.5703,4.5698,4.5701,4.571,4.571,4.5711,4.5711,0,4.5716,4.5727,4.5705,4.5711,4.5712,4.5695,4.5699,4.5687,4.5693,4.5676,4.5673,4.5681,4.5668,4.5677,4.5663,4.5667,4.5638,4.5644,4.564,4.5641,4.562,4.5622,4.5546,4.5537,4.5606,4.5605,4.5605,0,4.5679,4.5663,4.5669,4.5662,4.5663,4.5651,4.5646,4.566,4.5654,4.5651,4.5639,4.5628,4.562,4.5599,4.5603,4.5593,4.5599,4.5573,4.5597,4.5595,4.5599,4.56,4.5599,4.5568,4.5567,4.5567,4.5566,0,4.5611,4.5619,4.5611,4.5606,4.56,4.5596,4.5593,4.5586,4.5601,4.5593,4.5581,4.5576,4.5564,4.5553,4.5545,4.5544,4.5558,4.5559,4.5554,4.555,4.5548,4.555,4.5627,4.556,4.5561,4.5561,4.5562,4.5562,4.5561,4.5549,4.5552,4.5543,4.5544,4.5542,4.5531,4.5537,4.5528,4.5521,4.553,4.5516,4.5515,4.5507,4.5505,4.5494,4.5504,4.5496,4.5494,4.5492,4.549,4.555,4.5493,4.5493,4.5493,4.5493,4.5493,0,4.5495,4.5499,4.5491,4.5489,4.5482,4.5498,4.5496,4.549,4.5478,4.5477,4.547,4.5458,4.5448,4.5453,4.5445,4.5435,4.5441,4.5432,4.5433,4.5433,4.548,4.5486,4.5428,4.5428,4.5428,4.5428,4.5428,4.5428,4.5461,4.5442,4.545,4.5431,4.5435,4.5423,4.5421,4.5419,4.5419,4.5405,4.5399,4.5403,4.5404,4.5397,4.5389,4.539,4.5386,4.5376,4.5379,4.5423,4.5429,4.5436,4.5441,4.5375,4.5375,4.5333,4.5333,4.5333]}]]